Location: Geyikbay?r?
(36.8756°N, 30.4583°E)
Time: 07:09:42
(UTC+00:00)

Cosmos 1933 - Pass Details

Date: 05 August 2024
Orbit: 531 x 535 km, 82.5° (Epoch: 10 September)

Event Time Altitude Azimuth Distance (km) Brightness Sun altitude
Rises 19:37:21 0° 347° (NNW) 2,686 7.8 -26.3°
Reaches altitude 10° 19:39:32 10° 343° (NNW) 1,793 6.8 -26.5°
Enters shadow 19:42:33 44° 309° (NW) 752 4.3 -26.9°
